Time,TemperatureF,DewpointF,PressureIn,WindDirection,WindDirectionDegrees,WindSpeedMPH,WindSpeedGustMPH,Humidity,HourlyPrecipIn,Conditions,Clouds,dailyrainin,SoftwareType,DateUTC
2013-04-15 00:05:00,63.7,60.0,30.07,ESE,107,2.0,8.0,86,0.00,,,0.00,weatherlink.com 1.10,2013-04-15 04:05:00,
2013-04-15 00:20:00,63.5,60.0,30.06,East,101,5.0,8.0,87,0.00,,,0.00,weatherlink.com 1.10,2013-04-15 04:20:00,
2013-04-15 00:35:00,63.4,60.0,30.05,East,91,3.0,7.0,87,0.00,,,0.00,weatherlink.com 1.10,2013-04-15 04:35:00,
2013-04-15 00:50:00,63.5,60.0,30.06,SE,126,6.0,11.0,87,0.00,,,0.00,weatherlink.com 1.10,2013-04-15 04:50:00,
2013-04-15 01:05:00,63.7,60.0,30.06,SSE,156,3.0,9.0,86,0.00,,,0.00,weatherlink.com 1.10,2013-04-15 05:05:00,
2013-04-15 01:20:00,63.7,60.0,30.06,ESE,113,10.0,11.0,86,0.00,,,0.00,weatherlink.com 1.10,2013-04-15 05:20:00,
2013-04-15 01:35:00,63.8,60.0,30.06,SSE,159,6.0,13.0,86,0.00,,,0.00,weatherlink.com 1.10,2013-04-15 05:35:00,
2013-04-15 01:50:00,63.9,60.0,30.05,SE,146,6.0,10.0,86,0.00,,,0.00,weatherlink.com 1.10,2013-04-15 05:50:00,
2013-04-15 02:05:00,63.8,60.0,30.04,SSE,151,6.0,10.0,86,0.00,,,0.00,weatherlink.com 1.10,2013-04-15 06:05:00,
2013-04-15 02:20:00,63.9,60.0,30.03,SSE,168,7.0,11.0,86,0.00,,,0.00,weatherlink.com 1.10,2013-04-15 06:20:00,
2013-04-15 02:35:00,63.8,60.0,30.02,SSE,157,5.0,14.0,86,0.00,,,0.00,weatherlink.com 1.10,2013-04-15 06:35:00,
2013-04-15 02:50:00,63.7,60.0,30.02,SSE,155,2.0,13.0,86,0.00,,,0.00,weatherlink.com 1.10,2013-04-15 06:50:00,
2013-04-15 03:05:00,63.4,59.0,30.02,SE,134,9.0,11.0,86,0.01,,,0.01,weatherlink.com 1.10,2013-04-15 07:05:00,
2013-04-15 03:50:00,62.6,59.0,30.03,ESE,103,5.0,11.0,88,0.02,,,0.02,weatherlink.com 1.10,2013-04-15 07:50:00,
2013-04-15 04:05:00,62.6,59.0,30.01,SSE,160,7.0,11.0,88,0.01,,,0.02,weatherlink.com 1.10,2013-04-15 08:05:00,
2013-04-15 04:50:00,62.3,59.0,30.02,ESE,111,3.0,11.0,89,0.03,,,0.05,weatherlink.com 1.10,2013-04-15 08:50:00,
2013-04-15 05:05:00,62.2,59.0,30.02,ENE,78,3.0,10.0,89,0.04,,,0.06,weatherlink.com 1.10,2013-04-15 09:05:00,
2013-04-15 05:20:00,62.1,59.0,30.03,ENE,60,1.0,9.0,89,0.04,,,0.07,weatherlink.com 1.10,2013-04-15 09:20:00,
2013-04-15 05:35:00,62.0,59.0,30.04,SE,130,7.0,10.0,90,0.05,,,0.09,weatherlink.com 1.10,2013-04-15 09:35:00,
2013-04-15 05:50:00,61.8,59.0,29.99,ESE,107,3.0,12.0,90,0.04,,,0.10,weatherlink.com 1.10,2013-04-15 09:50:00,
2013-04-15 06:05:00,61.1,58.0,30.01,SE,141,9.0,11.0,90,0.06,,,0.12,weatherlink.com 1.10,2013-04-15 10:05:00,
2013-04-15 06:20:00,61.7,59.0,30.00,ESE,113,11.0,15.0,89,0.07,,,0.14,weatherlink.com 1.10,2013-04-15 10:20:00,
2013-04-15 06:36:00,61.8,59.0,29.98,SSE,153,11.0,17.0,90,0.06,,,0.15,weatherlink.com 1.10,2013-04-15 10:36:00,
2013-04-15 06:51:00,61.9,59.0,29.97,SE,124,12.0,20.0,90,0.08,,,0.18,weatherlink.com 1.10,2013-04-15 10:51:00,
2013-04-15 07:06:00,61.6,58.0,29.99,East,97,7.0,16.0,89,0.09,,,0.21,weatherlink.com 1.10,2013-04-15 11:06:00,
2013-04-15 07:21:00,60.9,58.0,29.99,SE,128,5.0,14.0,89,0.10,,,0.24,weatherlink.com 1.10,2013-04-15 11:21:00,
2013-04-15 07:36:00,59.7,57.0,29.98,ESE,109,7.0,15.0,89,0.13,,,0.29,weatherlink.com 1.10,2013-04-15 11:36:00,
2013-04-15 07:51:00,59.3,56.0,29.99,East,92,7.0,17.0,89,0.16,,,0.34,weatherlink.com 1.10,2013-04-15 11:51:00,
2013-04-15 08:06:00,59.3,56.0,29.99,ENE,74,8.0,15.0,89,0.19,,,0.40,weatherlink.com 1.10,2013-04-15 12:06:00,
2013-04-15 08:21:00,59.1,56.0,30.01,SE,124,12.0,17.0,89,0.21,,,0.45,weatherlink.com 1.10,2013-04-15 12:21:00,
2013-04-15 09:51:00,60.0,57.0,30.02,East,91,7.0,14.0,90,0.01,,,0.56,weatherlink.com 1.10,2013-04-15 13:51:00,
2013-04-15 10:21:00,63.0,60.0,30.02,SSE,164,3.0,13.0,90,0.00,,,0.56,weatherlink.com 1.10,2013-04-15 14:21:00,
2013-04-15 10:51:00,63.1,60.0,30.04,SE,128,2.0,13.0,89,0.00,,,0.56,weatherlink.com 1.10,2013-04-15 14:51:00,
2013-04-15 11:51:00,64.4,61.0,30.06,ENE,78,5.0,9.0,87,0.00,,,0.56,weatherlink.com 1.10,2013-04-15 15:51:00,
2013-04-15 12:36:00,65.3,61.0,30.06,ENE,69,3.0,8.0,86,0.00,,,0.56,weatherlink.com 1.10,2013-04-15 16:36:00,
2013-04-15 12:51:00,66.2,61.0,30.06,East,80,2.0,8.0,84,0.00,,,0.56,weatherlink.com 1.10,2013-04-15 16:51:00,
2013-04-15 13:06:00,66.9,62.0,30.06,East,81,1.0,8.0,83,0.00,,,0.56,weatherlink.com 1.10,2013-04-15 17:06:00,
2013-04-15 13:21:00,67.6,61.0,30.07,ENE,76,3.0,8.0,80,0.00,,,0.56,weatherlink.com 1.10,2013-04-15 17:21:00,
2013-04-15 14:36:00,67.3,61.0,30.09,ENE,77,0.0,3.0,80,0.00,,,0.56,weatherlink.com 1.10,2013-04-15 18:36:00,
2013-04-15 14:51:00,67.5,61.0,30.09,ENE,69,0.0,4.0,79,0.00,,,0.56,weatherlink.com 1.10,2013-04-15 18:51:00,
2013-04-15 15:06:00,67.7,61.0,30.09,ENE,69,0.0,5.0,78,0.00,,,0.56,weatherlink.com 1.10,2013-04-15 19:06:00,
2013-04-15 15:21:00,68.7,62.0,30.08,ENE,69,0.0,4.0,78,0.00,,,0.56,weatherlink.com 1.10,2013-04-15 19:21:00,
2013-04-15 15:36:00,68.7,62.0,30.08,ESE,107,0.0,4.0,79,0.00,,,0.56,weatherlink.com 1.10,2013-04-15 19:36:00,
2013-04-15 15:51:00,68.2,61.0,30.08,East,88,0.0,5.0,79,0.00,,,0.56,weatherlink.com 1.10,2013-04-15 19:51:00,
2013-04-15 16:06:00,68.0,61.0,30.08,SSE,163,0.0,2.0,78,0.00,,,0.56,weatherlink.com 1.10,2013-04-15 20:06:00,
2013-04-15 16:21:00,67.9,61.0,30.09,SSE,163,0.0,0.0,79,0.00,,,0.56,weatherlink.com 1.10,2013-04-15 20:21:00,
2013-04-15 16:36:00,67.9,62.0,30.09,SSE,163,0.0,1.0,80,0.00,,,0.56,weatherlink.com 1.10,2013-04-15 20:36:00,
2013-04-15 16:51:00,68.1,62.0,30.09,ESE,123,0.0,3.0,81,0.00,,,0.56,weatherlink.com 1.10,2013-04-15 20:51:00,
2013-04-15 17:06:00,68.1,62.0,30.09,East,96,3.0,6.0,81,0.00,,,0.56,weatherlink.com 1.10,2013-04-15 21:06:00,
2013-04-15 17:36:00,68.1,62.0,30.10,NE,55,4.0,6.0,81,0.00,,,0.56,weatherlink.com 1.10,2013-04-15 21:36:00,
2013-04-15 17:51:00,68.0,62.0,30.10,NNE,32,3.0,5.0,82,0.00,,,0.56,weatherlink.com 1.10,2013-04-15 21:51:00,
2013-04-15 18:07:00,67.9,62.0,30.10,NNE,32,6.0,7.0,82,0.00,,,0.56,weatherlink.com 1.10,2013-04-15 22:07:00,
2013-04-15 18:22:00,67.6,62.0,30.10,NNE,32,2.0,5.0,83,0.00,,,0.56,weatherlink.com 1.10,2013-04-15 22:22:00,
2013-04-15 18:37:00,67.4,62.0,30.11,NNE,32,3.0,7.0,84,0.00,,,0.56,weatherlink.com 1.10,2013-04-15 22:37:00,
2013-04-15 18:52:00,67.0,62.0,30.11,NNE,32,5.0,7.0,85,0.00,,,0.56,weatherlink.com 1.10,2013-04-15 22:52:00,
2013-04-15 19:07:00,66.7,62.0,30.11,NNE,32,5.0,7.0,86,0.00,,,0.56,weatherlink.com 1.10,2013-04-15 23:07:00,
2013-04-15 19:22:00,66.4,62.0,30.11,NE,38,3.0,6.0,86,0.00,,,0.56,weatherlink.com 1.10,2013-04-15 23:22:00,
2013-04-15 19:37:00,66.2,62.0,30.11,NE,38,2.0,5.0,87,0.00,,,0.56,weatherlink.com 1.10,2013-04-15 23:37:00,
2013-04-15 19:52:00,66.1,62.0,30.11,NE,38,0.0,3.0,87,0.00,,,0.56,weatherlink.com 1.10,2013-04-15 23:52:00,
2013-04-15 20:07:00,65.9,62.0,30.12,NE,38,0.0,0.0,87,0.00,,,0.56,weatherlink.com 1.10,2013-04-16 00:07:00,
2013-04-15 20:22:00,65.8,62.0,30.12,NE,38,0.0,0.0,87,0.00,,,0.56,weatherlink.com 1.10,2013-04-16 00:22:00,
2013-04-15 20:37:00,66.0,62.0,30.13,NE,38,0.0,3.0,86,0.00,,,0.56,weatherlink.com 1.10,2013-04-16 00:37:00,
2013-04-15 20:52:00,66.1,62.0,30.14,NE,38,0.0,4.0,87,0.00,,,0.56,weatherlink.com 1.10,2013-04-16 00:52:00,
2013-04-15 21:07:00,65.8,62.0,30.15,NE,38,5.0,7.0,88,0.00,,,0.56,weatherlink.com 1.10,2013-04-16 01:07:00,
2013-04-15 21:22:00,66.0,62.0,30.15,NE,41,4.0,7.0,87,0.00,,,0.56,weatherlink.com 1.10,2013-04-16 01:22:00,
2013-04-15 21:37:00,65.9,62.0,30.16,NE,36,3.0,9.0,88,0.00,,,0.56,weatherlink.com 1.10,2013-04-16 01:37:00,
2013-04-15 21:52:00,65.7,62.0,30.16,NNE,28,8.0,8.0,88,0.00,,,0.56,weatherlink.com 1.10,2013-04-16 01:52:00,
2013-04-15 22:07:00,65.7,62.0,30.17,NE,35,4.0,7.0,88,0.00,,,0.56,weatherlink.com 1.10,2013-04-16 02:07:00,
2013-04-15 22:22:00,65.5,62.0,30.18,NE,35,4.0,6.0,87,0.00,,,0.56,weatherlink.com 1.10,2013-04-16 02:22:00,
2013-04-15 22:37:00,65.4,62.0,30.18,NE,39,2.0,5.0,87,0.00,,,0.56,weatherlink.com 1.10,2013-04-16 02:37:00,
2013-04-15 22:52:00,65.4,62.0,30.18,NE,46,2.0,6.0,87,0.00,,,0.56,weatherlink.com 1.10,2013-04-16 02:52:00,
2013-04-15 23:07:00,65.0,61.0,30.19,ENE,74,3.0,8.0,87,0.00,,,0.56,weatherlink.com 1.10,2013-04-16 03:07:00,
2013-04-15 23:22:00,64.7,61.0,30.19,East,80,1.0,9.0,88,0.00,,,0.56,weatherlink.com 1.10,2013-04-16 03:22:00,
2013-04-15 23:37:00,64.4,61.0,30.19,ENE,59,1.0,4.0,89,0.00,,,0.56,weatherlink.com 1.10,2013-04-16 03:37:00,
2013-04-15 23:52:00,64.3,61.0,30.19,ENE,58,2.0,4.0,89,0.00,,,0.56,weatherlink.com 1.10,2013-04-16 03:52:00,